Location: Unspecified
(48.8656°N, 0.0000°E)
Time: 14:25:57
(UTC+00:00)

Vanguard 3 - Pass Details

Date: 27 June 2019
Orbit: 507 x 3264 km, 33.4° (Epoch: 16 July)

Event Time Altitude Azimuth Distance (km) Brightness Sun altitude
Rises 14:41:37 0° 265° (W) 5,270 11.9 49.8°
Reaches altitude 10° 14:47:28 10° 246° (WSW) 3,614 11.4 48.9°
Maximum altitude 14:51:48 15° 216° (SW) 2,768 10.7 48.2°
Drops below altitude 10° 14:55:13 10° 184° (S) 2,707 10.2 47.7°
Sets 14:58:34 0° 159° (SSE) 3,272 10.3 47.2°
